Weather in Amvrosiivka

Ukraine / Donetsk Region     47°47′43″N   38°28′47″E
temp.,
°C
wind,
m/s
gust,
m/s
humid.,
%
clouds,
%
prec.,
mm/h
press.,
hPa
HPBL,
m
17 october, sun
sun1700:00+11ne3348100 0.0 101537
03:00+11nne3349100 0.0 101541
06:00+10nne3555100 0.0 101584
09:00+12ne4650100 0.0 1015226
12:00+17ne3437100 0.0 1015640
15:00+18nne3434100 0.0 10141098
18:00+14nne364594 0.0 101599
21:00+12n355294 0.0 1015109
18 october, mon
mon1800:00+11n345671 0.0 101684
03:00+12nnw2456100 0.0 1016105
06:00+12nnw3658100 0.0 1016158
09:00+12nnw3656100 0.0 1017284
12:00+15nnw334680 0.0 1017827
15:00+17wnw44425 0.0 10161336
18:00+13wnw3651100 0.0 1016129
21:00+11nw3751100 0.0 1017170
19 october, tue
tue1900:00+9wnw2358100 0.0 101770
03:00+8w3559100 0.0 1017125
06:00+7w476185 0.0 1017221
09:00+9w5862100 0.0 10171055
12:00+9w5772100 0.1 1017808
15:00+11nnw465897 0.2 10161358
18:00+9nnw5668100 0.2 10191019
21:00+7nw37665 0.8 1021279
20 october, wed
wed2000:00+5nw410555 0.0 1022294
03:00+4nw49685 0.0 1024257
06:00+3wnw38765 0.0 1025234
09:00+5nw57655 0.0 1027671
12:00+8nw564564 0.0 10271441
15:00+9nw563871 0.0 10271542
18:00+7nw224414 0.0 102817
21:00+5w2249100 0.0 102825
21 october, thu
thu2100:00+5wsw225278 0.0 102819
03:00+4wsw225599 0.0 102811
06:00+3sw2255100 0.0 102723
09:00+7ssw354768 0.0 1027250
12:00+12sw564547 0.0 10261049
15:00+12ssw67435 0.0 10241040
18:00+8ssw5854100 0.0 1023296
21:00+6ssw387234 0.0 1022203